sat.trackr.live / text

‹ back to catalog

SKYSAT-C12

NORAD 43797 · 2018-099AR

PAYLOAD ACTIVE UNKNOWN

§ Identity

Operator
Country
US
Launch date
2018-12-03
Launch site
AFWTR
Launch vehicle
Mass (kg)
RCS (m²)

Purposes: earth_obs

External: N2YO · Heavens-Above · Gunter

§ Orbital elements

Epoch: 2026-09-19T07:55:57.788544Z

Period
92.80 min
Inclination
96.9249°
Eccentricity
0.0004769
Mean motion
15.51697827 rev/d
Perigee alt
408.5 km
Apogee alt
415.0 km
Semi-major
6,789.9 km
B*
2.1923e-4
RAAN
281.9488°
Arg perigee
151.7601°
Mean anomaly
208.3912°
Rev number
43,644

§ Raw data

SKYSAT-C121 43797U 18099AR  26262.33052996  .00012966  00000+0  21923-3 0  99952 43797  96.9249 281.9488 0004769 151.7601 208.3912 15.51697827436445

JSON: /api/v1/satellites/43797 · /tle

For live sub-satellite position, see the globe view (requires WebGL).

§ Visibility from observer

Set your observer location to see the next 7 days of passes ≥ 10°. The values pass through the URL so the page stays shareable.

No JS? Fill the form by hand. The geolocation button needs JavaScript.